<?xml version="1.0" encoding="UTF-8" standalone="no" ?>
<gpx xmlns="http://www.topografix.com/GPX/1/1" xmlns:xsi="http://www.w3.org/2001/XMLSchema-instance" xsi:schemaLocation="http://www.topografix.com/GPX/1/1 http://www.topografix.com/GPX/1/1/gpx.xsd" version="1.1" creator="VisuGPX - https://www.visugpx.com">
  <metadata>
    <name>Marchairuz Mont Tendre G3</name>
    <desc><![CDATA[pour impression]]></desc>
  </metadata>
  <trk>
    <name><![CDATA[Marchairuz Mont Tendre G3]]></name>
    <extensions>
      <line xmlns="http://www.topografix.com/GPX/gpx_style/0/2">
        <color>0400ff</color>
        <opacity>0.4</opacity>
        <width>7</width>
          <extensions>
            <sens>1</sens>
          </extensions>
      </line>
    </extensions>
    <trkseg>
      <trkpt lat="46.55242" lon="6.25157">
        <ele>1445</ele>
        <time>2023-01-05T10:11:21Z</time>
      </trkpt>
      <trkpt lat="46.55256" lon="6.25162">
        <ele>1446</ele>
        <time>2023-01-05T10:11:33Z</time>
      </trkpt>
      <trkpt lat="46.55252" lon="6.25189">
        <ele>1445</ele>
        <time>2023-01-05T10:11:48Z</time>
      </trkpt>
      <trkpt lat="46.5525" lon="6.25212">
        <ele>1444</ele>
        <time>2023-01-05T10:12:01Z</time>
      </trkpt>
      <trkpt lat="46.55255" lon="6.2524">
        <ele>1444</ele>
        <time>2023-01-05T10:12:16Z</time>
      </trkpt>
      <trkpt lat="46.55261" lon="6.25256">
        <ele>1444</ele>
        <time>2023-01-05T10:12:26Z</time>
      </trkpt>
      <trkpt lat="46.55272" lon="6.2527">
        <ele>1444</ele>
        <time>2023-01-05T10:12:38Z</time>
      </trkpt>
      <trkpt lat="46.55291" lon="6.25288">
        <ele>1445</ele>
        <time>2023-01-05T10:12:56Z</time>
      </trkpt>
      <trkpt lat="46.55319" lon="6.25315">
        <ele>1446</ele>
        <time>2023-01-05T10:13:23Z</time>
      </trkpt>
      <trkpt lat="46.55345" lon="6.25341">
        <ele>1446</ele>
        <time>2023-01-05T10:13:49Z</time>
      </trkpt>
      <trkpt lat="46.55363" lon="6.25369">
        <ele>1445</ele>
        <time>2023-01-05T10:14:10Z</time>
      </trkpt>
      <trkpt lat="46.55389" lon="6.25405">
        <ele>1445</ele>
        <time>2023-01-05T10:14:38Z</time>
      </trkpt>
      <trkpt lat="46.55403" lon="6.25417">
        <ele>1446</ele>
        <time>2023-01-05T10:14:51Z</time>
      </trkpt>
      <trkpt lat="46.55416" lon="6.25431">
        <ele>1447</ele>
        <time>2023-01-05T10:15:04Z</time>
      </trkpt>
      <trkpt lat="46.55427" lon="6.25448">
        <ele>1448</ele>
        <time>2023-01-05T10:15:17Z</time>
      </trkpt>
      <trkpt lat="46.55442" lon="6.25473">
        <ele>1449</ele>
        <time>2023-01-05T10:15:35Z</time>
      </trkpt>
      <trkpt lat="46.55466" lon="6.25509">
        <ele>1451</ele>
        <time>2023-01-05T10:16:03Z</time>
      </trkpt>
      <trkpt lat="46.55482" lon="6.2553">
        <ele>1451</ele>
        <time>2023-01-05T10:16:20Z</time>
      </trkpt>
      <trkpt lat="46.55523" lon="6.25566">
        <ele>1454</ele>
        <time>2023-01-05T10:16:59Z</time>
      </trkpt>
      <trkpt lat="46.5555" lon="6.25591">
        <ele>1455</ele>
        <time>2023-01-05T10:17:24Z</time>
      </trkpt>
      <trkpt lat="46.55563" lon="6.25606">
        <ele>1456</ele>
        <time>2023-01-05T10:17:38Z</time>
      </trkpt>
      <trkpt lat="46.55597" lon="6.25634">
        <ele>1459</ele>
        <time>2023-01-05T10:18:09Z</time>
      </trkpt>
      <trkpt lat="46.55615" lon="6.25653">
        <ele>1461</ele>
        <time>2023-01-05T10:18:27Z</time>
      </trkpt>
      <trkpt lat="46.55622" lon="6.25669">
        <ele>1462</ele>
        <time>2023-01-05T10:18:37Z</time>
      </trkpt>
      <trkpt lat="46.55633" lon="6.25688">
        <ele>1464</ele>
        <time>2023-01-05T10:18:51Z</time>
      </trkpt>
      <trkpt lat="46.55647" lon="6.25716">
        <ele>1466</ele>
        <time>2023-01-05T10:19:10Z</time>
      </trkpt>
      <trkpt lat="46.55656" lon="6.25732">
        <ele>1468</ele>
        <time>2023-01-05T10:19:21Z</time>
      </trkpt>
      <trkpt lat="46.5566" lon="6.25741">
        <ele>1468</ele>
        <time>2023-01-05T10:19:27Z</time>
      </trkpt>
      <trkpt lat="46.55665" lon="6.25764">
        <ele>1470</ele>
        <time>2023-01-05T10:19:40Z</time>
      </trkpt>
      <trkpt lat="46.55674" lon="6.25791">
        <ele>1473</ele>
        <time>2023-01-05T10:19:57Z</time>
      </trkpt>
      <trkpt lat="46.55677" lon="6.25814">
        <ele>1475</ele>
        <time>2023-01-05T10:20:10Z</time>
      </trkpt>
      <trkpt lat="46.55682" lon="6.25833">
        <ele>1477</ele>
        <time>2023-01-05T10:20:21Z</time>
      </trkpt>
      <trkpt lat="46.55684" lon="6.25862">
        <ele>1479</ele>
        <time>2023-01-05T10:20:37Z</time>
      </trkpt>
      <trkpt lat="46.55687" lon="6.25876">
        <ele>1480</ele>
        <time>2023-01-05T10:20:45Z</time>
      </trkpt>
      <trkpt lat="46.5569" lon="6.25897">
        <ele>1481</ele>
        <time>2023-01-05T10:20:57Z</time>
      </trkpt>
      <trkpt lat="46.55689" lon="6.25924">
        <ele>1482</ele>
        <time>2023-01-05T10:21:12Z</time>
      </trkpt>
      <trkpt lat="46.55686" lon="6.25934">
        <ele>1482</ele>
        <time>2023-01-05T10:21:18Z</time>
      </trkpt>
      <trkpt lat="46.55681" lon="6.25944">
        <ele>1482</ele>
        <time>2023-01-05T10:21:25Z</time>
      </trkpt>
      <trkpt lat="46.55675" lon="6.25953">
        <ele>1483</ele>
        <time>2023-01-05T10:21:32Z</time>
      </trkpt>
      <trkpt lat="46.55655" lon="6.25959">
        <ele>1482</ele>
        <time>2023-01-05T10:21:48Z</time>
      </trkpt>
      <trkpt lat="46.55646" lon="6.2597">
        <ele>1482</ele>
        <time>2023-01-05T10:21:57Z</time>
      </trkpt>
      <trkpt lat="46.5564" lon="6.25984">
        <ele>1482</ele>
        <time>2023-01-05T10:22:06Z</time>
      </trkpt>
      <trkpt lat="46.55638" lon="6.2601">
        <ele>1482</ele>
        <time>2023-01-05T10:22:21Z</time>
      </trkpt>
      <trkpt lat="46.55644" lon="6.2603">
        <ele>1482</ele>
        <time>2023-01-05T10:22:33Z</time>
      </trkpt>
      <trkpt lat="46.55651" lon="6.26043">
        <ele>1483</ele>
        <time>2023-01-05T10:22:42Z</time>
      </trkpt>
      <trkpt lat="46.5566" lon="6.26065">
        <ele>1483</ele>
        <time>2023-01-05T10:22:56Z</time>
      </trkpt>
      <trkpt lat="46.55659" lon="6.26084">
        <ele>1483</ele>
        <time>2023-01-05T10:23:06Z</time>
      </trkpt>
      <trkpt lat="46.55655" lon="6.26094">
        <ele>1482</ele>
        <time>2023-01-05T10:23:13Z</time>
      </trkpt>
      <trkpt lat="46.55648" lon="6.26112">
        <ele>1480</ele>
        <time>2023-01-05T10:23:24Z</time>
      </trkpt>
      <trkpt lat="46.55623" lon="6.26125">
        <ele>1479</ele>
        <time>2023-01-05T10:23:45Z</time>
      </trkpt>
      <trkpt lat="46.55592" lon="6.26123">
        <ele>1478</ele>
        <time>2023-01-05T10:24:10Z</time>
      </trkpt>
      <trkpt lat="46.55575" lon="6.2613">
        <ele>1477</ele>
        <time>2023-01-05T10:24:24Z</time>
      </trkpt>
      <trkpt lat="46.55566" lon="6.26142">
        <ele>1477</ele>
        <time>2023-01-05T10:24:34Z</time>
      </trkpt>
      <trkpt lat="46.55551" lon="6.26182">
        <ele>1475</ele>
        <time>2023-01-05T10:24:59Z</time>
      </trkpt>
      <trkpt lat="46.55541" lon="6.26194">
        <ele>1475</ele>
        <time>2023-01-05T10:25:10Z</time>
      </trkpt>
      <trkpt lat="46.5553" lon="6.26196">
        <ele>1475</ele>
        <time>2023-01-05T10:25:19Z</time>
      </trkpt>
      <trkpt lat="46.55515" lon="6.26191">
        <ele>1475</ele>
        <time>2023-01-05T10:25:31Z</time>
      </trkpt>
      <trkpt lat="46.55483" lon="6.26172">
        <ele>1474</ele>
        <time>2023-01-05T10:25:59Z</time>
      </trkpt>
      <trkpt lat="46.55469" lon="6.26182">
        <ele>1471</ele>
        <time>2023-01-05T10:26:11Z</time>
      </trkpt>
      <trkpt lat="46.55462" lon="6.26204">
        <ele>1469</ele>
        <time>2023-01-05T10:26:24Z</time>
      </trkpt>
      <trkpt lat="46.55463" lon="6.26224">
        <ele>1468</ele>
        <time>2023-01-05T10:26:35Z</time>
      </trkpt>
      <trkpt lat="46.55482" lon="6.26273">
        <ele>1467</ele>
        <time>2023-01-05T10:27:06Z</time>
      </trkpt>
      <trkpt lat="46.55495" lon="6.263">
        <ele>1466</ele>
        <time>2023-01-05T10:27:25Z</time>
      </trkpt>
      <trkpt lat="46.55488" lon="6.26328">
        <ele>1462</ele>
        <time>2023-01-05T10:27:41Z</time>
      </trkpt>
      <trkpt lat="46.55477" lon="6.26345">
        <ele>1460</ele>
        <time>2023-01-05T10:27:54Z</time>
      </trkpt>
      <trkpt lat="46.55475" lon="6.26355">
        <ele>1460</ele>
        <time>2023-01-05T10:28:00Z</time>
      </trkpt>
      <trkpt lat="46.55483" lon="6.26374">
        <ele>1459</ele>
        <time>2023-01-05T10:28:12Z</time>
      </trkpt>
      <trkpt lat="46.55486" lon="6.26384">
        <ele>1459</ele>
        <time>2023-01-05T10:28:18Z</time>
      </trkpt>
      <trkpt lat="46.55487" lon="6.26394">
        <ele>1458</ele>
        <time>2023-01-05T10:28:23Z</time>
      </trkpt>
      <trkpt lat="46.55486" lon="6.26406">
        <ele>1458</ele>
        <time>2023-01-05T10:28:30Z</time>
      </trkpt>
      <trkpt lat="46.55482" lon="6.26418">
        <ele>1457</ele>
        <time>2023-01-05T10:28:37Z</time>
      </trkpt>
      <trkpt lat="46.5548" lon="6.26427">
        <ele>1458</ele>
        <time>2023-01-05T10:28:43Z</time>
      </trkpt>
      <trkpt lat="46.5548" lon="6.26437">
        <ele>1458</ele>
        <time>2023-01-05T10:28:48Z</time>
      </trkpt>
      <trkpt lat="46.55482" lon="6.26448">
        <ele>1458</ele>
        <time>2023-01-05T10:28:54Z</time>
      </trkpt>
      <trkpt lat="46.5549" lon="6.26471">
        <ele>1458</ele>
        <time>2023-01-05T10:29:09Z</time>
      </trkpt>
      <trkpt lat="46.55505" lon="6.26504">
        <ele>1458</ele>
        <time>2023-01-05T10:29:30Z</time>
      </trkpt>
      <trkpt lat="46.55514" lon="6.26506">
        <ele>1458</ele>
        <time>2023-01-05T10:29:38Z</time>
      </trkpt>
      <trkpt lat="46.55534" lon="6.26513">
        <ele>1457</ele>
        <time>2023-01-05T10:29:54Z</time>
      </trkpt>
      <trkpt lat="46.55547" lon="6.26515">
        <ele>1457</ele>
        <time>2023-01-05T10:30:05Z</time>
      </trkpt>
      <trkpt lat="46.5557" lon="6.26521">
        <ele>1456</ele>
        <time>2023-01-05T10:30:23Z</time>
      </trkpt>
      <trkpt lat="46.55601" lon="6.26528">
        <ele>1456</ele>
        <time>2023-01-05T10:30:48Z</time>
      </trkpt>
      <trkpt lat="46.55629" lon="6.26535">
        <ele>1457</ele>
        <time>2023-01-05T10:31:11Z</time>
      </trkpt>
      <trkpt lat="46.55649" lon="6.26543">
        <ele>1457</ele>
        <time>2023-01-05T10:31:28Z</time>
      </trkpt>
      <trkpt lat="46.55663" lon="6.26551">
        <ele>1458</ele>
        <time>2023-01-05T10:31:40Z</time>
      </trkpt>
      <trkpt lat="46.55675" lon="6.2656">
        <ele>1459</ele>
        <time>2023-01-05T10:31:51Z</time>
      </trkpt>
      <trkpt lat="46.55686" lon="6.26572">
        <ele>1460</ele>
        <time>2023-01-05T10:32:02Z</time>
      </trkpt>
      <trkpt lat="46.55694" lon="6.26581">
        <ele>1461</ele>
        <time>2023-01-05T10:32:10Z</time>
      </trkpt>
      <trkpt lat="46.55699" lon="6.26594">
        <ele>1462</ele>
        <time>2023-01-05T10:32:18Z</time>
      </trkpt>
      <trkpt lat="46.55708" lon="6.26601">
        <ele>1463</ele>
        <time>2023-01-05T10:32:26Z</time>
      </trkpt>
      <trkpt lat="46.5572" lon="6.26615">
        <ele>1464</ele>
        <time>2023-01-05T10:32:38Z</time>
      </trkpt>
      <trkpt lat="46.55726" lon="6.26628">
        <ele>1465</ele>
        <time>2023-01-05T10:32:47Z</time>
      </trkpt>
      <trkpt lat="46.55734" lon="6.26633">
        <ele>1465</ele>
        <time>2023-01-05T10:32:54Z</time>
      </trkpt>
      <trkpt lat="46.55746" lon="6.26644">
        <ele>1466</ele>
        <time>2023-01-05T10:33:05Z</time>
      </trkpt>
      <trkpt lat="46.5576" lon="6.26663">
        <ele>1468</ele>
        <time>2023-01-05T10:33:21Z</time>
      </trkpt>
      <trkpt lat="46.55783" lon="6.26702">
        <ele>1476</ele>
        <time>2023-01-05T10:33:49Z</time>
      </trkpt>
      <trkpt lat="46.55818" lon="6.26779">
        <ele>1484</ele>
        <time>2023-01-05T10:34:40Z</time>
      </trkpt>
      <trkpt lat="46.55835" lon="6.26847">
        <ele>1486</ele>
        <time>2023-01-05T10:35:20Z</time>
      </trkpt>
      <trkpt lat="46.5585" lon="6.26907">
        <ele>1493</ele>
        <time>2023-01-05T10:35:55Z</time>
      </trkpt>
      <trkpt lat="46.55865" lon="6.26966">
        <ele>1497</ele>
        <time>2023-01-05T10:36:29Z</time>
      </trkpt>
      <trkpt lat="46.5588" lon="6.27007">
        <ele>1500</ele>
        <time>2023-01-05T10:36:55Z</time>
      </trkpt>
      <trkpt lat="46.55899" lon="6.27059">
        <ele>1504</ele>
        <time>2023-01-05T10:37:27Z</time>
      </trkpt>
      <trkpt lat="46.55919" lon="6.27086">
        <ele>1506</ele>
        <time>2023-01-05T10:37:49Z</time>
      </trkpt>
      <trkpt lat="46.55937" lon="6.27113">
        <ele>1508</ele>
        <time>2023-01-05T10:38:10Z</time>
      </trkpt>
      <trkpt lat="46.5596" lon="6.27108">
        <ele>1507</ele>
        <time>2023-01-05T10:38:29Z</time>
      </trkpt>
      <trkpt lat="46.55997" lon="6.27102">
        <ele>1506</ele>
        <time>2023-01-05T10:38:58Z</time>
      </trkpt>
      <trkpt lat="46.56019" lon="6.27113">
        <ele>1508</ele>
        <time>2023-01-05T10:39:17Z</time>
      </trkpt>
      <trkpt lat="46.56006" lon="6.27133">
        <ele>1507</ele>
        <time>2023-01-05T10:39:32Z</time>
      </trkpt>
      <trkpt lat="46.56025" lon="6.27155">
        <ele>1509</ele>
        <time>2023-01-05T10:39:52Z</time>
      </trkpt>
      <trkpt lat="46.56045" lon="6.27179">
        <ele>1510</ele>
        <time>2023-01-05T10:40:12Z</time>
      </trkpt>
      <trkpt lat="46.56068" lon="6.27207">
        <ele>1510</ele>
        <time>2023-01-05T10:40:36Z</time>
      </trkpt>
      <trkpt lat="46.56075" lon="6.27207">
        <ele>1509</ele>
        <time>2023-01-05T10:40:42Z</time>
      </trkpt>
      <trkpt lat="46.56082" lon="6.27209">
        <ele>1509</ele>
        <time>2023-01-05T10:40:48Z</time>
      </trkpt>
      <trkpt lat="46.56088" lon="6.27207">
        <ele>1509</ele>
        <time>2023-01-05T10:40:53Z</time>
      </trkpt>
      <trkpt lat="46.56098" lon="6.27204">
        <ele>1510</ele>
        <time>2023-01-05T10:41:01Z</time>
      </trkpt>
      <trkpt lat="46.56108" lon="6.27199">
        <ele>1511</ele>
        <time>2023-01-05T10:41:09Z</time>
      </trkpt>
      <trkpt lat="46.56117" lon="6.27194">
        <ele>1512</ele>
        <time>2023-01-05T10:41:17Z</time>
      </trkpt>
      <trkpt lat="46.56126" lon="6.27195">
        <ele>1512</ele>
        <time>2023-01-05T10:41:24Z</time>
      </trkpt>
      <trkpt lat="46.56131" lon="6.272">
        <ele>1512</ele>
        <time>2023-01-05T10:41:29Z</time>
      </trkpt>
      <trkpt lat="46.56139" lon="6.27199">
        <ele>1513</ele>
        <time>2023-01-05T10:41:36Z</time>
      </trkpt>
      <trkpt lat="46.56145" lon="6.27202">
        <ele>1513</ele>
        <time>2023-01-05T10:41:41Z</time>
      </trkpt>
      <trkpt lat="46.56153" lon="6.2721">
        <ele>1512</ele>
        <time>2023-01-05T10:41:48Z</time>
      </trkpt>
      <trkpt lat="46.56158" lon="6.27214">
        <ele>1512</ele>
        <time>2023-01-05T10:41:53Z</time>
      </trkpt>
      <trkpt lat="46.56172" lon="6.27217">
        <ele>1511</ele>
        <time>2023-01-05T10:42:04Z</time>
      </trkpt>
      <trkpt lat="46.56193" lon="6.27221">
        <ele>1509</ele>
        <time>2023-01-05T10:42:21Z</time>
      </trkpt>
      <trkpt lat="46.56209" lon="6.27226">
        <ele>1507</ele>
        <time>2023-01-05T10:42:34Z</time>
      </trkpt>
      <trkpt lat="46.56219" lon="6.27223">
        <ele>1506</ele>
        <time>2023-01-05T10:42:43Z</time>
      </trkpt>
      <trkpt lat="46.56227" lon="6.27219">
        <ele>1506</ele>
        <time>2023-01-05T10:42:49Z</time>
      </trkpt>
      <trkpt lat="46.56242" lon="6.27221">
        <ele>1504</ele>
        <time>2023-01-05T10:43:01Z</time>
      </trkpt>
      <trkpt lat="46.56253" lon="6.27221">
        <ele>1503</ele>
        <time>2023-01-05T10:43:10Z</time>
      </trkpt>
      <trkpt lat="46.56265" lon="6.27224">
        <ele>1502</ele>
        <time>2023-01-05T10:43:20Z</time>
      </trkpt>
      <trkpt lat="46.56269" lon="6.2723">
        <ele>1501</ele>
        <time>2023-01-05T10:43:25Z</time>
      </trkpt>
      <trkpt lat="46.5628" lon="6.27254">
        <ele>1498</ele>
        <time>2023-01-05T10:43:40Z</time>
      </trkpt>
      <trkpt lat="46.56284" lon="6.27269">
        <ele>1497</ele>
        <time>2023-01-05T10:43:49Z</time>
      </trkpt>
      <trkpt lat="46.56288" lon="6.27282">
        <ele>1496</ele>
        <time>2023-01-05T10:43:57Z</time>
      </trkpt>
      <trkpt lat="46.56302" lon="6.27308">
        <ele>1494</ele>
        <time>2023-01-05T10:44:15Z</time>
      </trkpt>
      <trkpt lat="46.56314" lon="6.27323">
        <ele>1493</ele>
        <time>2023-01-05T10:44:28Z</time>
      </trkpt>
      <trkpt lat="46.56324" lon="6.27336">
        <ele>1493</ele>
        <time>2023-01-05T10:44:39Z</time>
      </trkpt>
      <trkpt lat="46.56329" lon="6.27345">
        <ele>1492</ele>
        <time>2023-01-05T10:44:45Z</time>
      </trkpt>
      <trkpt lat="46.5633" lon="6.27356">
        <ele>1491</ele>
        <time>2023-01-05T10:44:51Z</time>
      </trkpt>
      <trkpt lat="46.5633" lon="6.27367">
        <ele>1490</ele>
        <time>2023-01-05T10:44:57Z</time>
      </trkpt>
      <trkpt lat="46.56328" lon="6.27376">
        <ele>1490</ele>
        <time>2023-01-05T10:45:02Z</time>
      </trkpt>
      <trkpt lat="46.56329" lon="6.27386">
        <ele>1489</ele>
        <time>2023-01-05T10:45:08Z</time>
      </trkpt>
      <trkpt lat="46.56336" lon="6.27403">
        <ele>1488</ele>
        <time>2023-01-05T10:45:19Z</time>
      </trkpt>
      <trkpt lat="46.56337" lon="6.27456">
        <ele>1482</ele>
        <time>2023-01-05T10:45:48Z</time>
      </trkpt>
      <trkpt lat="46.5636" lon="6.27489">
        <ele>1483</ele>
        <time>2023-01-05T10:46:14Z</time>
      </trkpt>
      <trkpt lat="46.5638" lon="6.27519">
        <ele>1484</ele>
        <time>2023-01-05T10:46:37Z</time>
      </trkpt>
      <trkpt lat="46.56398" lon="6.27559">
        <ele>1483</ele>
        <time>2023-01-05T10:47:03Z</time>
      </trkpt>
      <trkpt lat="46.56404" lon="6.27603">
        <ele>1481</ele>
        <time>2023-01-05T10:47:28Z</time>
      </trkpt>
      <trkpt lat="46.56417" lon="6.27642">
        <ele>1481</ele>
        <time>2023-01-05T10:47:52Z</time>
      </trkpt>
      <trkpt lat="46.56416" lon="6.27666">
        <ele>1480</ele>
        <time>2023-01-05T10:48:05Z</time>
      </trkpt>
      <trkpt lat="46.5638" lon="6.27692">
        <ele>1476</ele>
        <time>2023-01-05T10:48:37Z</time>
      </trkpt>
      <trkpt lat="46.56365" lon="6.27713">
        <ele>1474</ele>
        <time>2023-01-05T10:48:54Z</time>
      </trkpt>
      <trkpt lat="46.56354" lon="6.27745">
        <ele>1472</ele>
        <time>2023-01-05T10:49:14Z</time>
      </trkpt>
      <trkpt lat="46.56346" lon="6.27751">
        <ele>1471</ele>
        <time>2023-01-05T10:49:21Z</time>
      </trkpt>
      <trkpt lat="46.56296" lon="6.27747">
        <ele>1469</ele>
        <time>2023-01-05T10:50:01Z</time>
      </trkpt>
      <trkpt lat="46.56248" lon="6.27744">
        <ele>1467</ele>
        <time>2023-01-05T10:50:39Z</time>
      </trkpt>
      <trkpt lat="46.56212" lon="6.2777">
        <ele>1467</ele>
        <time>2023-01-05T10:51:12Z</time>
      </trkpt>
      <trkpt lat="46.56193" lon="6.27803">
        <ele>1467</ele>
        <time>2023-01-05T10:51:35Z</time>
      </trkpt>
      <trkpt lat="46.56174" lon="6.27834">
        <ele>1466</ele>
        <time>2023-01-05T10:51:58Z</time>
      </trkpt>
      <trkpt lat="46.56165" lon="6.27865">
        <ele>1464</ele>
        <time>2023-01-05T10:52:17Z</time>
      </trkpt>
      <trkpt lat="46.56159" lon="6.27909">
        <ele>1461</ele>
        <time>2023-01-05T10:52:41Z</time>
      </trkpt>
      <trkpt lat="46.56168" lon="6.27955">
        <ele>1458</ele>
        <time>2023-01-05T10:53:08Z</time>
      </trkpt>
      <trkpt lat="46.56177" lon="6.28">
        <ele>1457</ele>
        <time>2023-01-05T10:53:33Z</time>
      </trkpt>
      <trkpt lat="46.56186" lon="6.28045">
        <ele>1451</ele>
        <time>2023-01-05T10:53:59Z</time>
      </trkpt>
      <trkpt lat="46.56196" lon="6.28068">
        <ele>1449</ele>
        <time>2023-01-05T10:54:14Z</time>
      </trkpt>
      <trkpt lat="46.56208" lon="6.28088">
        <ele>1447</ele>
        <time>2023-01-05T10:54:29Z</time>
      </trkpt>
      <trkpt lat="46.56235" lon="6.28112">
        <ele>1447</ele>
        <time>2023-01-05T10:54:54Z</time>
      </trkpt>
      <trkpt lat="46.5626" lon="6.28136">
        <ele>1446</ele>
        <time>2023-01-05T10:55:18Z</time>
      </trkpt>
      <trkpt lat="46.56284" lon="6.28178">
        <ele>1443</ele>
        <time>2023-01-05T10:55:48Z</time>
      </trkpt>
      <trkpt lat="46.5631" lon="6.28178">
        <ele>1444</ele>
        <time>2023-01-05T10:56:09Z</time>
      </trkpt>
      <trkpt lat="46.56329" lon="6.28179">
        <ele>1445</ele>
        <time>2023-01-05T10:56:24Z</time>
      </trkpt>
      <trkpt lat="46.56342" lon="6.28186">
        <ele>1445</ele>
        <time>2023-01-05T10:56:35Z</time>
      </trkpt>
      <trkpt lat="46.56359" lon="6.28239">
        <ele>1441</ele>
        <time>2023-01-05T10:57:08Z</time>
      </trkpt>
      <trkpt lat="46.56378" lon="6.28263">
        <ele>1441</ele>
        <time>2023-01-05T10:57:28Z</time>
      </trkpt>
      <trkpt lat="46.5638" lon="6.28284">
        <ele>1441</ele>
        <time>2023-01-05T10:57:39Z</time>
      </trkpt>
      <trkpt lat="46.56368" lon="6.28314">
        <ele>1439</ele>
        <time>2023-01-05T10:57:59Z</time>
      </trkpt>
      <trkpt lat="46.56355" lon="6.28347">
        <ele>1436</ele>
        <time>2023-01-05T10:58:19Z</time>
      </trkpt>
      <trkpt lat="46.56339" lon="6.28389">
        <ele>1433</ele>
        <time>2023-01-05T10:58:46Z</time>
      </trkpt>
      <trkpt lat="46.56326" lon="6.28403">
        <ele>1431</ele>
        <time>2023-01-05T10:58:59Z</time>
      </trkpt>
      <trkpt lat="46.56334" lon="6.28409">
        <ele>1431</ele>
        <time>2023-01-05T10:59:06Z</time>
      </trkpt>
      <trkpt lat="46.56343" lon="6.28412">
        <ele>1433</ele>
        <time>2023-01-05T10:59:13Z</time>
      </trkpt>
      <trkpt lat="46.56351" lon="6.28411">
        <ele>1434</ele>
        <time>2023-01-05T10:59:20Z</time>
      </trkpt>
      <trkpt lat="46.56364" lon="6.28406">
        <ele>1437</ele>
        <time>2023-01-05T10:59:31Z</time>
      </trkpt>
      <trkpt lat="46.56376" lon="6.28401">
        <ele>1439</ele>
        <time>2023-01-05T10:59:41Z</time>
      </trkpt>
      <trkpt lat="46.56387" lon="6.28395">
        <ele>1441</ele>
        <time>2023-01-05T10:59:50Z</time>
      </trkpt>
      <trkpt lat="46.56394" lon="6.28393">
        <ele>1442</ele>
        <time>2023-01-05T10:59:56Z</time>
      </trkpt>
      <trkpt lat="46.564" lon="6.28394">
        <ele>1443</ele>
        <time>2023-01-05T11:00:01Z</time>
      </trkpt>
      <trkpt lat="46.56406" lon="6.28397">
        <ele>1444</ele>
        <time>2023-01-05T11:00:06Z</time>
      </trkpt>
      <trkpt lat="46.56411" lon="6.28404">
        <ele>1445</ele>
        <time>2023-01-05T11:00:11Z</time>
      </trkpt>
      <trkpt lat="46.56416" lon="6.28416">
        <ele>1446</ele>
        <time>2023-01-05T11:00:19Z</time>
      </trkpt>
      <trkpt lat="46.56418" lon="6.2843">
        <ele>1446</ele>
        <time>2023-01-05T11:00:27Z</time>
      </trkpt>
      <trkpt lat="46.56421" lon="6.28456">
        <ele>1446</ele>
        <time>2023-01-05T11:00:41Z</time>
      </trkpt>
      <trkpt lat="46.56426" lon="6.28508">
        <ele>1446</ele>
        <time>2023-01-05T11:01:10Z</time>
      </trkpt>
      <trkpt lat="46.56426" lon="6.28551">
        <ele>1446</ele>
        <time>2023-01-05T11:01:34Z</time>
      </trkpt>
      <trkpt lat="46.56429" lon="6.28569">
        <ele>1445</ele>
        <time>2023-01-05T11:01:44Z</time>
      </trkpt>
      <trkpt lat="46.56438" lon="6.28597">
        <ele>1446</ele>
        <time>2023-01-05T11:02:01Z</time>
      </trkpt>
      <trkpt lat="46.56449" lon="6.28625">
        <ele>1446</ele>
        <time>2023-01-05T11:02:19Z</time>
      </trkpt>
      <trkpt lat="46.56458" lon="6.28642">
        <ele>1446</ele>
        <time>2023-01-05T11:02:31Z</time>
      </trkpt>
      <trkpt lat="46.56478" lon="6.28671">
        <ele>1447</ele>
        <time>2023-01-05T11:02:53Z</time>
      </trkpt>
      <trkpt lat="46.56502" lon="6.28701">
        <ele>1449</ele>
        <time>2023-01-05T11:03:19Z</time>
      </trkpt>
      <trkpt lat="46.56519" lon="6.28716">
        <ele>1451</ele>
        <time>2023-01-05T11:03:35Z</time>
      </trkpt>
      <trkpt lat="46.5653" lon="6.28722">
        <ele>1452</ele>
        <time>2023-01-05T11:03:44Z</time>
      </trkpt>
      <trkpt lat="46.56541" lon="6.28726">
        <ele>1453</ele>
        <time>2023-01-05T11:03:53Z</time>
      </trkpt>
      <trkpt lat="46.56559" lon="6.28732">
        <ele>1455</ele>
        <time>2023-01-05T11:04:08Z</time>
      </trkpt>
      <trkpt lat="46.5657" lon="6.28733">
        <ele>1456</ele>
        <time>2023-01-05T11:04:17Z</time>
      </trkpt>
      <trkpt lat="46.56584" lon="6.2873">
        <ele>1456</ele>
        <time>2023-01-05T11:04:28Z</time>
      </trkpt>
      <trkpt lat="46.56589" lon="6.28723">
        <ele>1456</ele>
        <time>2023-01-05T11:04:34Z</time>
      </trkpt>
      <trkpt lat="46.56595" lon="6.28712">
        <ele>1455</ele>
        <time>2023-01-05T11:04:41Z</time>
      </trkpt>
      <trkpt lat="46.56602" lon="6.28694">
        <ele>1455</ele>
        <time>2023-01-05T11:04:53Z</time>
      </trkpt>
      <trkpt lat="46.56609" lon="6.28673">
        <ele>1454</ele>
        <time>2023-01-05T11:05:05Z</time>
      </trkpt>
      <trkpt lat="46.5662" lon="6.28638">
        <ele>1456</ele>
        <time>2023-01-05T11:05:27Z</time>
      </trkpt>
      <trkpt lat="46.56631" lon="6.28607">
        <ele>1458</ele>
        <time>2023-01-05T11:05:46Z</time>
      </trkpt>
      <trkpt lat="46.56636" lon="6.286">
        <ele>1458</ele>
        <time>2023-01-05T11:05:51Z</time>
      </trkpt>
      <trkpt lat="46.56645" lon="6.28595">
        <ele>1459</ele>
        <time>2023-01-05T11:05:59Z</time>
      </trkpt>
      <trkpt lat="46.56655" lon="6.28597">
        <ele>1459</ele>
        <time>2023-01-05T11:06:07Z</time>
      </trkpt>
      <trkpt lat="46.56661" lon="6.28602">
        <ele>1459</ele>
        <time>2023-01-05T11:06:13Z</time>
      </trkpt>
      <trkpt lat="46.56686" lon="6.28628">
        <ele>1461</ele>
        <time>2023-01-05T11:06:37Z</time>
      </trkpt>
      <trkpt lat="46.56709" lon="6.28652">
        <ele>1462</ele>
        <time>2023-01-05T11:07:00Z</time>
      </trkpt>
      <trkpt lat="46.56731" lon="6.28675">
        <ele>1464</ele>
        <time>2023-01-05T11:07:22Z</time>
      </trkpt>
      <trkpt lat="46.56752" lon="6.28696">
        <ele>1467</ele>
        <time>2023-01-05T11:07:42Z</time>
      </trkpt>
      <trkpt lat="46.56763" lon="6.28701">
        <ele>1468</ele>
        <time>2023-01-05T11:07:51Z</time>
      </trkpt>
      <trkpt lat="46.56774" lon="6.28699">
        <ele>1470</ele>
        <time>2023-01-05T11:08:00Z</time>
      </trkpt>
      <trkpt lat="46.56782" lon="6.28692">
        <ele>1471</ele>
        <time>2023-01-05T11:08:08Z</time>
      </trkpt>
      <trkpt lat="46.56785" lon="6.28685">
        <ele>1471</ele>
        <time>2023-01-05T11:08:12Z</time>
      </trkpt>
      <trkpt lat="46.56788" lon="6.28673">
        <ele>1472</ele>
        <time>2023-01-05T11:08:19Z</time>
      </trkpt>
      <trkpt lat="46.56795" lon="6.28636">
        <ele>1474</ele>
        <time>2023-01-05T11:08:40Z</time>
      </trkpt>
      <trkpt lat="46.56805" lon="6.2859">
        <ele>1477</ele>
        <time>2023-01-05T11:09:07Z</time>
      </trkpt>
      <trkpt lat="46.56813" lon="6.28553">
        <ele>1479</ele>
        <time>2023-01-05T11:09:28Z</time>
      </trkpt>
      <trkpt lat="46.56818" lon="6.28543">
        <ele>1479</ele>
        <time>2023-01-05T11:09:35Z</time>
      </trkpt>
      <trkpt lat="46.56824" lon="6.28537">
        <ele>1480</ele>
        <time>2023-01-05T11:09:41Z</time>
      </trkpt>
      <trkpt lat="46.56842" lon="6.28516">
        <ele>1483</ele>
        <time>2023-01-05T11:09:59Z</time>
      </trkpt>
      <trkpt lat="46.56847" lon="6.2851">
        <ele>1484</ele>
        <time>2023-01-05T11:10:05Z</time>
      </trkpt>
      <trkpt lat="46.56851" lon="6.28498">
        <ele>1484</ele>
        <time>2023-01-05T11:10:12Z</time>
      </trkpt>
      <trkpt lat="46.56855" lon="6.28475">
        <ele>1486</ele>
        <time>2023-01-05T11:10:25Z</time>
      </trkpt>
      <trkpt lat="46.56859" lon="6.28468">
        <ele>1487</ele>
        <time>2023-01-05T11:10:30Z</time>
      </trkpt>
      <trkpt lat="46.56868" lon="6.28461">
        <ele>1489</ele>
        <time>2023-01-05T11:10:38Z</time>
      </trkpt>
      <trkpt lat="46.56875" lon="6.28459">
        <ele>1490</ele>
        <time>2023-01-05T11:10:44Z</time>
      </trkpt>
      <trkpt lat="46.5688" lon="6.28462">
        <ele>1491</ele>
        <time>2023-01-05T11:10:48Z</time>
      </trkpt>
      <trkpt lat="46.56889" lon="6.28471">
        <ele>1492</ele>
        <time>2023-01-05T11:10:57Z</time>
      </trkpt>
      <trkpt lat="46.56898" lon="6.28491">
        <ele>1494</ele>
        <time>2023-01-05T11:11:10Z</time>
      </trkpt>
      <trkpt lat="46.56911" lon="6.28522">
        <ele>1495</ele>
        <time>2023-01-05T11:11:30Z</time>
      </trkpt>
      <trkpt lat="46.56926" lon="6.28554">
        <ele>1496</ele>
        <time>2023-01-05T11:11:51Z</time>
      </trkpt>
      <trkpt lat="46.56937" lon="6.28573">
        <ele>1496</ele>
        <time>2023-01-05T11:12:05Z</time>
      </trkpt>
      <trkpt lat="46.5694" lon="6.28576">
        <ele>1497</ele>
        <time>2023-01-05T11:12:08Z</time>
      </trkpt>
      <trkpt lat="46.56946" lon="6.28579">
        <ele>1497</ele>
        <time>2023-01-05T11:12:13Z</time>
      </trkpt>
      <trkpt lat="46.56954" lon="6.28581">
        <ele>1498</ele>
        <time>2023-01-05T11:12:20Z</time>
      </trkpt>
      <trkpt lat="46.5697" lon="6.28579">
        <ele>1499</ele>
        <time>2023-01-05T11:12:32Z</time>
      </trkpt>
      <trkpt lat="46.56998" lon="6.28571">
        <ele>1503</ele>
        <time>2023-01-05T11:12:55Z</time>
      </trkpt>
      <trkpt lat="46.57035" lon="6.28562">
        <ele>1505</ele>
        <time>2023-01-05T11:13:25Z</time>
      </trkpt>
      <trkpt lat="46.5707" lon="6.28553">
        <ele>1507</ele>
        <time>2023-01-05T11:13:54Z</time>
      </trkpt>
      <trkpt lat="46.57107" lon="6.28544">
        <ele>1509</ele>
        <time>2023-01-05T11:14:24Z</time>
      </trkpt>
      <trkpt lat="46.57145" lon="6.28534">
        <ele>1512</ele>
        <time>2023-01-05T11:14:55Z</time>
      </trkpt>
      <trkpt lat="46.57186" lon="6.28524">
        <ele>1515</ele>
        <time>2023-01-05T11:15:28Z</time>
      </trkpt>
      <trkpt lat="46.57213" lon="6.28517">
        <ele>1518</ele>
        <time>2023-01-05T11:15:50Z</time>
      </trkpt>
      <trkpt lat="46.57241" lon="6.28511">
        <ele>1521</ele>
        <time>2023-01-05T11:16:13Z</time>
      </trkpt>
      <trkpt lat="46.57253" lon="6.28514">
        <ele>1522</ele>
        <time>2023-01-05T11:16:22Z</time>
      </trkpt>
      <trkpt lat="46.57263" lon="6.28523">
        <ele>1523</ele>
        <time>2023-01-05T11:16:32Z</time>
      </trkpt>
      <trkpt lat="46.57278" lon="6.28537">
        <ele>1525</ele>
        <time>2023-01-05T11:16:46Z</time>
      </trkpt>
      <trkpt lat="46.57284" lon="6.28545">
        <ele>1526</ele>
        <time>2023-01-05T11:16:53Z</time>
      </trkpt>
      <trkpt lat="46.57287" lon="6.28552">
        <ele>1526</ele>
        <time>2023-01-05T11:16:57Z</time>
      </trkpt>
      <trkpt lat="46.57291" lon="6.28566">
        <ele>1526</ele>
        <time>2023-01-05T11:17:06Z</time>
      </trkpt>
      <trkpt lat="46.57298" lon="6.28618">
        <ele>1525</ele>
        <time>2023-01-05T11:17:35Z</time>
      </trkpt>
      <trkpt lat="46.57305" lon="6.28672">
        <ele>1526</ele>
        <time>2023-01-05T11:18:05Z</time>
      </trkpt>
      <trkpt lat="46.57314" lon="6.28733">
        <ele>1528</ele>
        <time>2023-01-05T11:18:39Z</time>
      </trkpt>
      <trkpt lat="46.57323" lon="6.28797">
        <ele>1528</ele>
        <time>2023-01-05T11:19:15Z</time>
      </trkpt>
      <trkpt lat="46.5733" lon="6.28847">
        <ele>1526</ele>
        <time>2023-01-05T11:19:43Z</time>
      </trkpt>
      <trkpt lat="46.57332" lon="6.28859">
        <ele>1526</ele>
        <time>2023-01-05T11:19:50Z</time>
      </trkpt>
      <trkpt lat="46.57336" lon="6.28872">
        <ele>1526</ele>
        <time>2023-01-05T11:19:58Z</time>
      </trkpt>
      <trkpt lat="46.57347" lon="6.28888">
        <ele>1528</ele>
        <time>2023-01-05T11:20:10Z</time>
      </trkpt>
      <trkpt lat="46.57356" lon="6.28895">
        <ele>1529</ele>
        <time>2023-01-05T11:20:19Z</time>
      </trkpt>
      <trkpt lat="46.57386" lon="6.28912">
        <ele>1532</ele>
        <time>2023-01-05T11:20:44Z</time>
      </trkpt>
      <trkpt lat="46.5741" lon="6.28923">
        <ele>1534</ele>
        <time>2023-01-05T11:21:05Z</time>
      </trkpt>
      <trkpt lat="46.57427" lon="6.28934">
        <ele>1534</ele>
        <time>2023-01-05T11:21:19Z</time>
      </trkpt>
      <trkpt lat="46.57454" lon="6.28957">
        <ele>1533</ele>
        <time>2023-01-05T11:21:44Z</time>
      </trkpt>
      <trkpt lat="46.5746" lon="6.28964">
        <ele>1533</ele>
        <time>2023-01-05T11:21:51Z</time>
      </trkpt>
      <trkpt lat="46.57465" lon="6.28974">
        <ele>1533</ele>
        <time>2023-01-05T11:21:57Z</time>
      </trkpt>
      <trkpt lat="46.5747" lon="6.28982">
        <ele>1533</ele>
        <time>2023-01-05T11:22:03Z</time>
      </trkpt>
      <trkpt lat="46.57475" lon="6.28991">
        <ele>1532</ele>
        <time>2023-01-05T11:22:10Z</time>
      </trkpt>
      <trkpt lat="46.57481" lon="6.28995">
        <ele>1533</ele>
        <time>2023-01-05T11:22:15Z</time>
      </trkpt>
      <trkpt lat="46.5749" lon="6.28996">
        <ele>1533</ele>
        <time>2023-01-05T11:22:22Z</time>
      </trkpt>
      <trkpt lat="46.57515" lon="6.28987">
        <ele>1535</ele>
        <time>2023-01-05T11:22:43Z</time>
      </trkpt>
      <trkpt lat="46.57543" lon="6.28978">
        <ele>1536</ele>
        <time>2023-01-05T11:23:06Z</time>
      </trkpt>
      <trkpt lat="46.57571" lon="6.28969">
        <ele>1537</ele>
        <time>2023-01-05T11:23:29Z</time>
      </trkpt>
      <trkpt lat="46.57598" lon="6.28959">
        <ele>1539</ele>
        <time>2023-01-05T11:23:51Z</time>
      </trkpt>
      <trkpt lat="46.5762" lon="6.28946">
        <ele>1541</ele>
        <time>2023-01-05T11:24:10Z</time>
      </trkpt>
      <trkpt lat="46.57636" lon="6.28932">
        <ele>1543</ele>
        <time>2023-01-05T11:24:25Z</time>
      </trkpt>
      <trkpt lat="46.57643" lon="6.2892">
        <ele>1545</ele>
        <time>2023-01-05T11:24:34Z</time>
      </trkpt>
      <trkpt lat="46.57654" lon="6.28905">
        <ele>1546</ele>
        <time>2023-01-05T11:24:46Z</time>
      </trkpt>
      <trkpt lat="46.57666" lon="6.28887">
        <ele>1547</ele>
        <time>2023-01-05T11:25:00Z</time>
      </trkpt>
      <trkpt lat="46.57671" lon="6.28877">
        <ele>1548</ele>
        <time>2023-01-05T11:25:06Z</time>
      </trkpt>
      <trkpt lat="46.57675" lon="6.28867">
        <ele>1548</ele>
        <time>2023-01-05T11:25:13Z</time>
      </trkpt>
      <trkpt lat="46.57676" lon="6.28853">
        <ele>1549</ele>
        <time>2023-01-05T11:25:21Z</time>
      </trkpt>
      <trkpt lat="46.57678" lon="6.28841">
        <ele>1549</ele>
        <time>2023-01-05T11:25:27Z</time>
      </trkpt>
      <trkpt lat="46.5768" lon="6.28835">
        <ele>1549</ele>
        <time>2023-01-05T11:25:31Z</time>
      </trkpt>
      <trkpt lat="46.57686" lon="6.28828">
        <ele>1550</ele>
        <time>2023-01-05T11:25:37Z</time>
      </trkpt>
      <trkpt lat="46.57694" lon="6.28823">
        <ele>1550</ele>
        <time>2023-01-05T11:25:44Z</time>
      </trkpt>
      <trkpt lat="46.57712" lon="6.28813">
        <ele>1552</ele>
        <time>2023-01-05T11:26:00Z</time>
      </trkpt>
      <trkpt lat="46.57721" lon="6.2881">
        <ele>1552</ele>
        <time>2023-01-05T11:26:07Z</time>
      </trkpt>
      <trkpt lat="46.57732" lon="6.2881">
        <ele>1553</ele>
        <time>2023-01-05T11:26:16Z</time>
      </trkpt>
      <trkpt lat="46.57744" lon="6.28814">
        <ele>1554</ele>
        <time>2023-01-05T11:26:26Z</time>
      </trkpt>
      <trkpt lat="46.57768" lon="6.28819">
        <ele>1556</ele>
        <time>2023-01-05T11:26:45Z</time>
      </trkpt>
      <trkpt lat="46.57784" lon="6.28824">
        <ele>1557</ele>
        <time>2023-01-05T11:26:58Z</time>
      </trkpt>
      <trkpt lat="46.57839" lon="6.28835">
        <ele>1563</ele>
        <time>2023-01-05T11:27:43Z</time>
      </trkpt>
      <trkpt lat="46.57848" lon="6.28836">
        <ele>1565</ele>
        <time>2023-01-05T11:27:50Z</time>
      </trkpt>
      <trkpt lat="46.57853" lon="6.28834">
        <ele>1566</ele>
        <time>2023-01-05T11:27:54Z</time>
      </trkpt>
      <trkpt lat="46.57859" lon="6.28824">
        <ele>1567</ele>
        <time>2023-01-05T11:28:01Z</time>
      </trkpt>
      <trkpt lat="46.57859" lon="6.28835">
        <ele>1567</ele>
        <time>2023-01-05T11:28:07Z</time>
      </trkpt>
      <trkpt lat="46.57848" lon="6.28854">
        <ele>1564</ele>
        <time>2023-01-05T11:28:21Z</time>
      </trkpt>
      <trkpt lat="46.57822" lon="6.28884">
        <ele>1560</ele>
        <time>2023-01-05T11:28:48Z</time>
      </trkpt>
      <trkpt lat="46.57821" lon="6.28907">
        <ele>1559</ele>
        <time>2023-01-05T11:29:00Z</time>
      </trkpt>
      <trkpt lat="46.57848" lon="6.28944">
        <ele>1561</ele>
        <time>2023-01-05T11:29:30Z</time>
      </trkpt>
      <trkpt lat="46.57881" lon="6.28982">
        <ele>1564</ele>
        <time>2023-01-05T11:30:04Z</time>
      </trkpt>
      <trkpt lat="46.57904" lon="6.29013">
        <ele>1564</ele>
        <time>2023-01-05T11:30:29Z</time>
      </trkpt>
      <trkpt lat="46.57917" lon="6.29043">
        <ele>1565</ele>
        <time>2023-01-05T11:30:48Z</time>
      </trkpt>
      <trkpt lat="46.57928" lon="6.29052">
        <ele>1566</ele>
        <time>2023-01-05T11:30:58Z</time>
      </trkpt>
      <trkpt lat="46.57946" lon="6.29074">
        <ele>1568</ele>
        <time>2023-01-05T11:31:17Z</time>
      </trkpt>
      <trkpt lat="46.57974" lon="6.29103">
        <ele>1570</ele>
        <time>2023-01-05T11:31:45Z</time>
      </trkpt>
      <trkpt lat="46.58002" lon="6.29135">
        <ele>1571</ele>
        <time>2023-01-05T11:32:13Z</time>
      </trkpt>
      <trkpt lat="46.58018" lon="6.29141">
        <ele>1570</ele>
        <time>2023-01-05T11:32:26Z</time>
      </trkpt>
      <trkpt lat="46.58031" lon="6.29164">
        <ele>1568</ele>
        <time>2023-01-05T11:32:43Z</time>
      </trkpt>
      <trkpt lat="46.58025" lon="6.29211">
        <ele>1566</ele>
        <time>2023-01-05T11:33:09Z</time>
      </trkpt>
      <trkpt lat="46.58008" lon="6.29257">
        <ele>1564</ele>
        <time>2023-01-05T11:33:38Z</time>
      </trkpt>
      <trkpt lat="46.58006" lon="6.29305">
        <ele>1560</ele>
        <time>2023-01-05T11:34:04Z</time>
      </trkpt>
      <trkpt lat="46.58014" lon="6.29361">
        <ele>1556</ele>
        <time>2023-01-05T11:34:36Z</time>
      </trkpt>
      <trkpt lat="46.58022" lon="6.29414">
        <ele>1554</ele>
        <time>2023-01-05T11:35:06Z</time>
      </trkpt>
      <trkpt lat="46.58032" lon="6.29452">
        <ele>1555</ele>
        <time>2023-01-05T11:35:28Z</time>
      </trkpt>
      <trkpt lat="46.58042" lon="6.2948">
        <ele>1555</ele>
        <time>2023-01-05T11:35:45Z</time>
      </trkpt>
      <trkpt lat="46.58028" lon="6.2954">
        <ele>1552</ele>
        <time>2023-01-05T11:36:20Z</time>
      </trkpt>
      <trkpt lat="46.58044" lon="6.29564">
        <ele>1554</ele>
        <time>2023-01-05T11:36:39Z</time>
      </trkpt>
      <trkpt lat="46.58081" lon="6.29597">
        <ele>1557</ele>
        <time>2023-01-05T11:37:13Z</time>
      </trkpt>
      <trkpt lat="46.5811" lon="6.29603">
        <ele>1559</ele>
        <time>2023-01-05T11:37:37Z</time>
      </trkpt>
      <trkpt lat="46.58133" lon="6.29608">
        <ele>1560</ele>
        <time>2023-01-05T11:37:56Z</time>
      </trkpt>
      <trkpt lat="46.5817" lon="6.29617">
        <ele>1560</ele>
        <time>2023-01-05T11:38:26Z</time>
      </trkpt>
      <trkpt lat="46.58187" lon="6.2964">
        <ele>1560</ele>
        <time>2023-01-05T11:38:44Z</time>
      </trkpt>
      <trkpt lat="46.58233" lon="6.2967">
        <ele>1561</ele>
        <time>2023-01-05T11:39:25Z</time>
      </trkpt>
      <trkpt lat="46.58266" lon="6.29692">
        <ele>1561</ele>
        <time>2023-01-05T11:39:54Z</time>
      </trkpt>
      <trkpt lat="46.58278" lon="6.29702">
        <ele>1561</ele>
        <time>2023-01-05T11:40:05Z</time>
      </trkpt>
      <trkpt lat="46.58288" lon="6.29716">
        <ele>1560</ele>
        <time>2023-01-05T11:40:16Z</time>
      </trkpt>
      <trkpt lat="46.58333" lon="6.29731">
        <ele>1560</ele>
        <time>2023-01-05T11:40:53Z</time>
      </trkpt>
      <trkpt lat="46.58371" lon="6.29767">
        <ele>1561</ele>
        <time>2023-01-05T11:41:29Z</time>
      </trkpt>
      <trkpt lat="46.58392" lon="6.29819">
        <ele>1560</ele>
        <time>2023-01-05T11:42:02Z</time>
      </trkpt>
      <trkpt lat="46.58429" lon="6.29842">
        <ele>1563</ele>
        <time>2023-01-05T11:42:34Z</time>
      </trkpt>
      <trkpt lat="46.58463" lon="6.29864">
        <ele>1565</ele>
        <time>2023-01-05T11:43:04Z</time>
      </trkpt>
      <trkpt lat="46.5848" lon="6.29863">
        <ele>1567</ele>
        <time>2023-01-05T11:43:18Z</time>
      </trkpt>
      <trkpt lat="46.58495" lon="6.29852">
        <ele>1569</ele>
        <time>2023-01-05T11:43:31Z</time>
      </trkpt>
      <trkpt lat="46.58513" lon="6.29828">
        <ele>1572</ele>
        <time>2023-01-05T11:43:51Z</time>
      </trkpt>
      <trkpt lat="46.58516" lon="6.29815">
        <ele>1572</ele>
        <time>2023-01-05T11:43:58Z</time>
      </trkpt>
      <trkpt lat="46.58513" lon="6.29797">
        <ele>1572</ele>
        <time>2023-01-05T11:44:09Z</time>
      </trkpt>
      <trkpt lat="46.58517" lon="6.29785">
        <ele>1572</ele>
        <time>2023-01-05T11:44:16Z</time>
      </trkpt>
      <trkpt lat="46.5851" lon="6.29757">
        <ele>1571</ele>
        <time>2023-01-05T11:44:32Z</time>
      </trkpt>
      <trkpt lat="46.58516" lon="6.2974">
        <ele>1571</ele>
        <time>2023-01-05T11:44:43Z</time>
      </trkpt>
      <trkpt lat="46.58541" lon="6.29714">
        <ele>1572</ele>
        <time>2023-01-05T11:45:07Z</time>
      </trkpt>
      <trkpt lat="46.5855" lon="6.29709">
        <ele>1573</ele>
        <time>2023-01-05T11:45:15Z</time>
      </trkpt>
      <trkpt lat="46.58557" lon="6.29707">
        <ele>1573</ele>
        <time>2023-01-05T11:45:21Z</time>
      </trkpt>
      <trkpt lat="46.58564" lon="6.29699">
        <ele>1574</ele>
        <time>2023-01-05T11:45:28Z</time>
      </trkpt>
      <trkpt lat="46.58568" lon="6.29677">
        <ele>1573</ele>
        <time>2023-01-05T11:45:41Z</time>
      </trkpt>
      <trkpt lat="46.58596" lon="6.29722">
        <ele>1578</ele>
        <time>2023-01-05T11:46:14Z</time>
      </trkpt>
      <trkpt lat="46.58617" lon="6.29755">
        <ele>1582</ele>
        <time>2023-01-05T11:46:39Z</time>
      </trkpt>
      <trkpt lat="46.58638" lon="6.29815">
        <ele>1591</ele>
        <time>2023-01-05T11:47:16Z</time>
      </trkpt>
      <trkpt lat="46.58643" lon="6.29873">
        <ele>1597</ele>
        <time>2023-01-05T11:47:48Z</time>
      </trkpt>
      <trkpt lat="46.5865" lon="6.29903">
        <ele>1602</ele>
        <time>2023-01-05T11:48:05Z</time>
      </trkpt>
      <trkpt lat="46.58664" lon="6.29928">
        <ele>1607</ele>
        <time>2023-01-05T11:48:23Z</time>
      </trkpt>
      <trkpt lat="46.58674" lon="6.29938">
        <ele>1609</ele>
        <time>2023-01-05T11:48:33Z</time>
      </trkpt>
      <trkpt lat="46.58698" lon="6.29972">
        <ele>1616</ele>
        <time>2023-01-05T11:49:00Z</time>
      </trkpt>
      <trkpt lat="46.58711" lon="6.29997">
        <ele>1621</ele>
        <time>2023-01-05T11:49:17Z</time>
      </trkpt>
      <trkpt lat="46.58729" lon="6.30032">
        <ele>1624</ele>
        <time>2023-01-05T11:49:41Z</time>
      </trkpt>
      <trkpt lat="46.58747" lon="6.30053">
        <ele>1627</ele>
        <time>2023-01-05T11:49:59Z</time>
      </trkpt>
      <trkpt lat="46.58762" lon="6.30074">
        <ele>1628</ele>
        <time>2023-01-05T11:50:16Z</time>
      </trkpt>
      <trkpt lat="46.58786" lon="6.30106">
        <ele>1628</ele>
        <time>2023-01-05T11:50:42Z</time>
      </trkpt>
      <trkpt lat="46.58798" lon="6.30116">
        <ele>1629</ele>
        <time>2023-01-05T11:50:53Z</time>
      </trkpt>
      <trkpt lat="46.58815" lon="6.30122">
        <ele>1631</ele>
        <time>2023-01-05T11:51:07Z</time>
      </trkpt>
      <trkpt lat="46.58811" lon="6.30135">
        <ele>1629</ele>
        <time>2023-01-05T11:51:15Z</time>
      </trkpt>
      <trkpt lat="46.58801" lon="6.30139">
        <ele>1627</ele>
        <time>2023-01-05T11:51:23Z</time>
      </trkpt>
      <trkpt lat="46.58796" lon="6.30155">
        <ele>1624</ele>
        <time>2023-01-05T11:51:33Z</time>
      </trkpt>
      <trkpt lat="46.58788" lon="6.30172">
        <ele>1621</ele>
        <time>2023-01-05T11:51:44Z</time>
      </trkpt>
      <trkpt lat="46.58794" lon="6.30192">
        <ele>1621</ele>
        <time>2023-01-05T11:51:56Z</time>
      </trkpt>
      <trkpt lat="46.58809" lon="6.30219">
        <ele>1623</ele>
        <time>2023-01-05T11:52:15Z</time>
      </trkpt>
      <trkpt lat="46.58837" lon="6.30259">
        <ele>1626</ele>
        <time>2023-01-05T11:52:47Z</time>
      </trkpt>
      <trkpt lat="46.58847" lon="6.30269">
        <ele>1626</ele>
        <time>2023-01-05T11:52:57Z</time>
      </trkpt>
      <trkpt lat="46.58866" lon="6.30298">
        <ele>1627</ele>
        <time>2023-01-05T11:53:19Z</time>
      </trkpt>
      <trkpt lat="46.58879" lon="6.30315">
        <ele>1627</ele>
        <time>2023-01-05T11:53:33Z</time>
      </trkpt>
      <trkpt lat="46.58911" lon="6.30346">
        <ele>1629</ele>
        <time>2023-01-05T11:54:03Z</time>
      </trkpt>
      <trkpt lat="46.58931" lon="6.30361">
        <ele>1630</ele>
        <time>2023-01-05T11:54:21Z</time>
      </trkpt>
      <trkpt lat="46.58942" lon="6.30375">
        <ele>1631</ele>
        <time>2023-01-05T11:54:33Z</time>
      </trkpt>
      <trkpt lat="46.5896" lon="6.30405">
        <ele>1632</ele>
        <time>2023-01-05T11:54:55Z</time>
      </trkpt>
      <trkpt lat="46.58974" lon="6.30421">
        <ele>1633</ele>
        <time>2023-01-05T11:55:09Z</time>
      </trkpt>
      <trkpt lat="46.58991" lon="6.30438">
        <ele>1634</ele>
        <time>2023-01-05T11:55:26Z</time>
      </trkpt>
      <trkpt lat="46.59006" lon="6.3046">
        <ele>1635</ele>
        <time>2023-01-05T11:55:43Z</time>
      </trkpt>
      <trkpt lat="46.59014" lon="6.3047">
        <ele>1636</ele>
        <time>2023-01-05T11:55:51Z</time>
      </trkpt>
      <trkpt lat="46.59032" lon="6.30481">
        <ele>1640</ele>
        <time>2023-01-05T11:56:07Z</time>
      </trkpt>
      <trkpt lat="46.59043" lon="6.30504">
        <ele>1641</ele>
        <time>2023-01-05T11:56:22Z</time>
      </trkpt>
      <trkpt lat="46.59063" lon="6.30535">
        <ele>1644</ele>
        <time>2023-01-05T11:56:46Z</time>
      </trkpt>
      <trkpt lat="46.59089" lon="6.30576">
        <ele>1647</ele>
        <time>2023-01-05T11:57:16Z</time>
      </trkpt>
      <trkpt lat="46.59134" lon="6.3063">
        <ele>1649</ele>
        <time>2023-01-05T11:58:03Z</time>
      </trkpt>
      <trkpt lat="46.59166" lon="6.30668">
        <ele>1651</ele>
        <time>2023-01-05T11:58:36Z</time>
      </trkpt>
      <trkpt lat="46.59186" lon="6.30683">
        <ele>1649</ele>
        <time>2023-01-05T11:58:54Z</time>
      </trkpt>
      <trkpt lat="46.59216" lon="6.30712">
        <ele>1646</ele>
        <time>2023-01-05T11:59:23Z</time>
      </trkpt>
      <trkpt lat="46.59244" lon="6.30731">
        <ele>1645</ele>
        <time>2023-01-05T11:59:48Z</time>
      </trkpt>
      <trkpt lat="46.59256" lon="6.30748">
        <ele>1644</ele>
        <time>2023-01-05T12:00:01Z</time>
      </trkpt>
      <trkpt lat="46.59282" lon="6.30787">
        <ele>1642</ele>
        <time>2023-01-05T12:00:31Z</time>
      </trkpt>
      <trkpt lat="46.593" lon="6.30808">
        <ele>1642</ele>
        <time>2023-01-05T12:00:50Z</time>
      </trkpt>
      <trkpt lat="46.59303" lon="6.30823">
        <ele>1642</ele>
        <time>2023-01-05T12:00:58Z</time>
      </trkpt>
      <trkpt lat="46.59344" lon="6.30875">
        <ele>1643</ele>
        <time>2023-01-05T12:01:42Z</time>
      </trkpt>
      <trkpt lat="46.59355" lon="6.3089">
        <ele>1645</ele>
        <time>2023-01-05T12:01:54Z</time>
      </trkpt>
      <trkpt lat="46.59371" lon="6.30922">
        <ele>1648</ele>
        <time>2023-01-05T12:02:16Z</time>
      </trkpt>
      <trkpt lat="46.59378" lon="6.30941">
        <ele>1649</ele>
        <time>2023-01-05T12:02:27Z</time>
      </trkpt>
      <trkpt lat="46.59401" lon="6.30989">
        <ele>1654</ele>
        <time>2023-01-05T12:03:00Z</time>
      </trkpt>
      <trkpt lat="46.59408" lon="6.3101">
        <ele>1655</ele>
        <time>2023-01-05T12:03:12Z</time>
      </trkpt>
      <trkpt lat="46.59422" lon="6.31036">
        <ele>1655</ele>
        <time>2023-01-05T12:03:31Z</time>
      </trkpt>
      <trkpt lat="46.59441" lon="6.3108">
        <ele>1654</ele>
        <time>2023-01-05T12:03:59Z</time>
      </trkpt>
      <trkpt lat="46.59449" lon="6.31088">
        <ele>1655</ele>
        <time>2023-01-05T12:04:07Z</time>
      </trkpt>
      <trkpt lat="46.59456" lon="6.31092">
        <ele>1656</ele>
        <time>2023-01-05T12:04:13Z</time>
      </trkpt>
      <trkpt lat="46.59467" lon="6.31095">
        <ele>1657</ele>
        <time>2023-01-05T12:04:22Z</time>
      </trkpt>
      <trkpt lat="46.59502" lon="6.31104">
        <ele>1661</ele>
        <time>2023-01-05T12:04:50Z</time>
      </trkpt>
      <trkpt lat="46.5954" lon="6.31121">
        <ele>1657</ele>
        <time>2023-01-05T12:05:22Z</time>
      </trkpt>
      <trkpt lat="46.59522" lon="6.31091">
        <ele>1659</ele>
        <time>2023-01-05T12:05:44Z</time>
      </trkpt>
      <trkpt lat="46.595" lon="6.31063">
        <ele>1663</ele>
        <time>2023-01-05T12:06:08Z</time>
      </trkpt>
      <trkpt lat="46.59499" lon="6.31056">
        <ele>1663</ele>
        <time>2023-01-05T12:06:12Z</time>
      </trkpt>
      <trkpt lat="46.59496" lon="6.31054">
        <ele>1663</ele>
        <time>2023-01-05T12:06:14Z</time>
      </trkpt>
      <trkpt lat="46.59494" lon="6.31045">
        <ele>1663</ele>
        <time>2023-01-05T12:06:19Z</time>
      </trkpt>
      <trkpt lat="46.59477" lon="6.31008">
        <ele>1663</ele>
        <time>2023-01-05T12:06:44Z</time>
      </trkpt>
      <trkpt lat="46.59458" lon="6.30967">
        <ele>1659</ele>
        <time>2023-01-05T12:07:11Z</time>
      </trkpt>
      <trkpt lat="46.59421" lon="6.3092">
        <ele>1654</ele>
        <time>2023-01-05T12:07:50Z</time>
      </trkpt>
      <trkpt lat="46.59419" lon="6.30896">
        <ele>1652</ele>
        <time>2023-01-05T12:08:04Z</time>
      </trkpt>
      <trkpt lat="46.59414" lon="6.30881">
        <ele>1650</ele>
        <time>2023-01-05T12:08:13Z</time>
      </trkpt>
      <trkpt lat="46.59391" lon="6.30828">
        <ele>1644</ele>
        <time>2023-01-05T12:08:47Z</time>
      </trkpt>
      <trkpt lat="46.59393" lon="6.30823">
        <ele>1643</ele>
        <time>2023-01-05T12:08:51Z</time>
      </trkpt>
      <trkpt lat="46.59395" lon="6.30798">
        <ele>1640</ele>
        <time>2023-01-05T12:09:04Z</time>
      </trkpt>
      <trkpt lat="46.5939" lon="6.30739">
        <ele>1634</ele>
        <time>2023-01-05T12:09:37Z</time>
      </trkpt>
      <trkpt lat="46.59383" lon="6.30709">
        <ele>1632</ele>
        <time>2023-01-05T12:09:55Z</time>
      </trkpt>
      <trkpt lat="46.59374" lon="6.30692">
        <ele>1632</ele>
        <time>2023-01-05T12:10:06Z</time>
      </trkpt>
      <trkpt lat="46.59361" lon="6.30679">
        <ele>1633</ele>
        <time>2023-01-05T12:10:19Z</time>
      </trkpt>
      <trkpt lat="46.59359" lon="6.30657">
        <ele>1632</ele>
        <time>2023-01-05T12:10:31Z</time>
      </trkpt>
      <trkpt lat="46.59339" lon="6.30619">
        <ele>1636</ele>
        <time>2023-01-05T12:10:58Z</time>
      </trkpt>
      <trkpt lat="46.59337" lon="6.30598">
        <ele>1636</ele>
        <time>2023-01-05T12:11:09Z</time>
      </trkpt>
      <trkpt lat="46.59337" lon="6.30572">
        <ele>1634</ele>
        <time>2023-01-05T12:11:23Z</time>
      </trkpt>
      <trkpt lat="46.59328" lon="6.30526">
        <ele>1630</ele>
        <time>2023-01-05T12:11:50Z</time>
      </trkpt>
      <trkpt lat="46.5933" lon="6.3051">
        <ele>1628</ele>
        <time>2023-01-05T12:11:59Z</time>
      </trkpt>
      <trkpt lat="46.59328" lon="6.30489">
        <ele>1625</ele>
        <time>2023-01-05T12:12:10Z</time>
      </trkpt>
      <trkpt lat="46.59321" lon="6.30453">
        <ele>1621</ele>
        <time>2023-01-05T12:12:31Z</time>
      </trkpt>
      <trkpt lat="46.59312" lon="6.30401">
        <ele>1615</ele>
        <time>2023-01-05T12:13:00Z</time>
      </trkpt>
      <trkpt lat="46.59312" lon="6.30378">
        <ele>1611</ele>
        <time>2023-01-05T12:13:13Z</time>
      </trkpt>
      <trkpt lat="46.59296" lon="6.30304">
        <ele>1603</ele>
        <time>2023-01-05T12:13:56Z</time>
      </trkpt>
      <trkpt lat="46.59296" lon="6.30274">
        <ele>1598</ele>
        <time>2023-01-05T12:14:12Z</time>
      </trkpt>
      <trkpt lat="46.5929" lon="6.30238">
        <ele>1594</ele>
        <time>2023-01-05T12:14:33Z</time>
      </trkpt>
      <trkpt lat="46.59287" lon="6.30209">
        <ele>1591</ele>
        <time>2023-01-05T12:14:49Z</time>
      </trkpt>
      <trkpt lat="46.59283" lon="6.30163">
        <ele>1587</ele>
        <time>2023-01-05T12:15:14Z</time>
      </trkpt>
      <trkpt lat="46.59272" lon="6.30122">
        <ele>1584</ele>
        <time>2023-01-05T12:15:39Z</time>
      </trkpt>
      <trkpt lat="46.59245" lon="6.30081">
        <ele>1584</ele>
        <time>2023-01-05T12:16:10Z</time>
      </trkpt>
      <trkpt lat="46.59212" lon="6.3003">
        <ele>1579</ele>
        <time>2023-01-05T12:16:48Z</time>
      </trkpt>
      <trkpt lat="46.59172" lon="6.29996">
        <ele>1575</ele>
        <time>2023-01-05T12:17:25Z</time>
      </trkpt>
      <trkpt lat="46.59143" lon="6.29914">
        <ele>1569</ele>
        <time>2023-01-05T12:18:16Z</time>
      </trkpt>
      <trkpt lat="46.59107" lon="6.29877">
        <ele>1568</ele>
        <time>2023-01-05T12:18:51Z</time>
      </trkpt>
      <trkpt lat="46.59065" lon="6.29832">
        <ele>1569</ele>
        <time>2023-01-05T12:19:33Z</time>
      </trkpt>
      <trkpt lat="46.59025" lon="6.29791">
        <ele>1567</ele>
        <time>2023-01-05T12:20:12Z</time>
      </trkpt>
      <trkpt lat="46.58986" lon="6.2975">
        <ele>1566</ele>
        <time>2023-01-05T12:20:51Z</time>
      </trkpt>
      <trkpt lat="46.58943" lon="6.29705">
        <ele>1566</ele>
        <time>2023-01-05T12:21:33Z</time>
      </trkpt>
      <trkpt lat="46.58905" lon="6.29667">
        <ele>1565</ele>
        <time>2023-01-05T12:22:10Z</time>
      </trkpt>
      <trkpt lat="46.58863" lon="6.29623">
        <ele>1563</ele>
        <time>2023-01-05T12:22:52Z</time>
      </trkpt>
      <trkpt lat="46.58843" lon="6.29585">
        <ele>1559</ele>
        <time>2023-01-05T12:23:18Z</time>
      </trkpt>
      <trkpt lat="46.58816" lon="6.29549">
        <ele>1558</ele>
        <time>2023-01-05T12:23:47Z</time>
      </trkpt>
      <trkpt lat="46.58785" lon="6.29508">
        <ele>1555</ele>
        <time>2023-01-05T12:24:21Z</time>
      </trkpt>
      <trkpt lat="46.58762" lon="6.29491">
        <ele>1552</ele>
        <time>2023-01-05T12:24:42Z</time>
      </trkpt>
      <trkpt lat="46.58717" lon="6.29456">
        <ele>1548</ele>
        <time>2023-01-05T12:25:22Z</time>
      </trkpt>
      <trkpt lat="46.58705" lon="6.29453">
        <ele>1547</ele>
        <time>2023-01-05T12:25:32Z</time>
      </trkpt>
      <trkpt lat="46.58696" lon="6.29447">
        <ele>1547</ele>
        <time>2023-01-05T12:25:40Z</time>
      </trkpt>
      <trkpt lat="46.58652" lon="6.29403">
        <ele>1542</ele>
        <time>2023-01-05T12:26:23Z</time>
      </trkpt>
      <trkpt lat="46.58619" lon="6.2934">
        <ele>1540</ele>
        <time>2023-01-05T12:27:06Z</time>
      </trkpt>
      <trkpt lat="46.58613" lon="6.29323">
        <ele>1539</ele>
        <time>2023-01-05T12:27:17Z</time>
      </trkpt>
      <trkpt lat="46.58603" lon="6.29309">
        <ele>1539</ele>
        <time>2023-01-05T12:27:28Z</time>
      </trkpt>
      <trkpt lat="46.58585" lon="6.29288">
        <ele>1540</ele>
        <time>2023-01-05T12:27:47Z</time>
      </trkpt>
      <trkpt lat="46.58572" lon="6.29278">
        <ele>1540</ele>
        <time>2023-01-05T12:27:58Z</time>
      </trkpt>
      <trkpt lat="46.58561" lon="6.29268">
        <ele>1540</ele>
        <time>2023-01-05T12:28:09Z</time>
      </trkpt>
      <trkpt lat="46.58523" lon="6.29224">
        <ele>1543</ele>
        <time>2023-01-05T12:28:48Z</time>
      </trkpt>
      <trkpt lat="46.58508" lon="6.29209">
        <ele>1546</ele>
        <time>2023-01-05T12:29:02Z</time>
      </trkpt>
      <trkpt lat="46.58483" lon="6.29214">
        <ele>1549</ele>
        <time>2023-01-05T12:29:22Z</time>
      </trkpt>
      <trkpt lat="46.58476" lon="6.2921">
        <ele>1549</ele>
        <time>2023-01-05T12:29:28Z</time>
      </trkpt>
      <trkpt lat="46.58435" lon="6.2916">
        <ele>1555</ele>
        <time>2023-01-05T12:30:11Z</time>
      </trkpt>
      <trkpt lat="46.58404" lon="6.29128">
        <ele>1561</ele>
        <time>2023-01-05T12:30:42Z</time>
      </trkpt>
      <trkpt lat="46.58391" lon="6.29091">
        <ele>1565</ele>
        <time>2023-01-05T12:31:05Z</time>
      </trkpt>
      <trkpt lat="46.58369" lon="6.29072">
        <ele>1567</ele>
        <time>2023-01-05T12:31:25Z</time>
      </trkpt>
      <trkpt lat="46.58347" lon="6.29045">
        <ele>1571</ele>
        <time>2023-01-05T12:31:48Z</time>
      </trkpt>
      <trkpt lat="46.58313" lon="6.29013">
        <ele>1576</ele>
        <time>2023-01-05T12:32:20Z</time>
      </trkpt>
      <trkpt lat="46.58309" lon="6.28983">
        <ele>1578</ele>
        <time>2023-01-05T12:32:37Z</time>
      </trkpt>
      <trkpt lat="46.5827" lon="6.28949">
        <ele>1584</ele>
        <time>2023-01-05T12:33:14Z</time>
      </trkpt>
      <trkpt lat="46.58218" lon="6.28921">
        <ele>1589</ele>
        <time>2023-01-05T12:33:58Z</time>
      </trkpt>
      <trkpt lat="46.58199" lon="6.28902">
        <ele>1591</ele>
        <time>2023-01-05T12:34:17Z</time>
      </trkpt>
      <trkpt lat="46.58162" lon="6.28872">
        <ele>1595</ele>
        <time>2023-01-05T12:34:50Z</time>
      </trkpt>
      <trkpt lat="46.58119" lon="6.28852">
        <ele>1598</ele>
        <time>2023-01-05T12:35:27Z</time>
      </trkpt>
      <trkpt lat="46.58072" lon="6.28813">
        <ele>1599</ele>
        <time>2023-01-05T12:36:10Z</time>
      </trkpt>
      <trkpt lat="46.5804" lon="6.28775">
        <ele>1596</ele>
        <time>2023-01-05T12:36:43Z</time>
      </trkpt>
      <trkpt lat="46.58009" lon="6.28741">
        <ele>1591</ele>
        <time>2023-01-05T12:37:14Z</time>
      </trkpt>
      <trkpt lat="46.57998" lon="6.28724">
        <ele>1588</ele>
        <time>2023-01-05T12:37:27Z</time>
      </trkpt>
      <trkpt lat="46.57992" lon="6.28708">
        <ele>1586</ele>
        <time>2023-01-05T12:37:37Z</time>
      </trkpt>
      <trkpt lat="46.57974" lon="6.28684">
        <ele>1582</ele>
        <time>2023-01-05T12:37:57Z</time>
      </trkpt>
      <trkpt lat="46.57947" lon="6.28659">
        <ele>1576</ele>
        <time>2023-01-05T12:38:22Z</time>
      </trkpt>
      <trkpt lat="46.57929" lon="6.28632">
        <ele>1572</ele>
        <time>2023-01-05T12:38:43Z</time>
      </trkpt>
      <trkpt lat="46.57924" lon="6.28627">
        <ele>1571</ele>
        <time>2023-01-05T12:38:48Z</time>
      </trkpt>
      <trkpt lat="46.57923" lon="6.28617">
        <ele>1571</ele>
        <time>2023-01-05T12:38:53Z</time>
      </trkpt>
      <trkpt lat="46.57914" lon="6.2857">
        <ele>1570</ele>
        <time>2023-01-05T12:39:20Z</time>
      </trkpt>
      <trkpt lat="46.57911" lon="6.28543">
        <ele>1570</ele>
        <time>2023-01-05T12:39:35Z</time>
      </trkpt>
      <trkpt lat="46.57916" lon="6.28512">
        <ele>1570</ele>
        <time>2023-01-05T12:39:53Z</time>
      </trkpt>
      <trkpt lat="46.57923" lon="6.28483">
        <ele>1570</ele>
        <time>2023-01-05T12:40:10Z</time>
      </trkpt>
      <trkpt lat="46.57931" lon="6.28446">
        <ele>1569</ele>
        <time>2023-01-05T12:40:31Z</time>
      </trkpt>
      <trkpt lat="46.57942" lon="6.28416">
        <ele>1567</ele>
        <time>2023-01-05T12:40:50Z</time>
      </trkpt>
      <trkpt lat="46.57949" lon="6.28403">
        <ele>1566</ele>
        <time>2023-01-05T12:40:59Z</time>
      </trkpt>
      <trkpt lat="46.5796" lon="6.28396">
        <ele>1565</ele>
        <time>2023-01-05T12:41:08Z</time>
      </trkpt>
      <trkpt lat="46.57977" lon="6.28381">
        <ele>1563</ele>
        <time>2023-01-05T12:41:24Z</time>
      </trkpt>
      <trkpt lat="46.5799" lon="6.28367">
        <ele>1561</ele>
        <time>2023-01-05T12:41:37Z</time>
      </trkpt>
      <trkpt lat="46.57996" lon="6.28349">
        <ele>1557</ele>
        <time>2023-01-05T12:41:48Z</time>
      </trkpt>
      <trkpt lat="46.58013" lon="6.28326">
        <ele>1553</ele>
        <time>2023-01-05T12:42:07Z</time>
      </trkpt>
      <trkpt lat="46.5803" lon="6.28293">
        <ele>1549</ele>
        <time>2023-01-05T12:42:30Z</time>
      </trkpt>
      <trkpt lat="46.58035" lon="6.28273">
        <ele>1547</ele>
        <time>2023-01-05T12:42:41Z</time>
      </trkpt>
      <trkpt lat="46.58007" lon="6.2825">
        <ele>1541</ele>
        <time>2023-01-05T12:43:07Z</time>
      </trkpt>
      <trkpt lat="46.57992" lon="6.28233">
        <ele>1539</ele>
        <time>2023-01-05T12:43:22Z</time>
      </trkpt>
      <trkpt lat="46.57976" lon="6.28207">
        <ele>1538</ele>
        <time>2023-01-05T12:43:41Z</time>
      </trkpt>
      <trkpt lat="46.57958" lon="6.28164">
        <ele>1535</ele>
        <time>2023-01-05T12:44:09Z</time>
      </trkpt>
      <trkpt lat="46.57952" lon="6.28148">
        <ele>1534</ele>
        <time>2023-01-05T12:44:19Z</time>
      </trkpt>
      <trkpt lat="46.57949" lon="6.2809">
        <ele>1528</ele>
        <time>2023-01-05T12:44:51Z</time>
      </trkpt>
      <trkpt lat="46.57942" lon="6.28078">
        <ele>1527</ele>
        <time>2023-01-05T12:45:00Z</time>
      </trkpt>
      <trkpt lat="46.57918" lon="6.28042">
        <ele>1525</ele>
        <time>2023-01-05T12:45:27Z</time>
      </trkpt>
      <trkpt lat="46.57868" lon="6.27988">
        <ele>1523</ele>
        <time>2023-01-05T12:46:17Z</time>
      </trkpt>
      <trkpt lat="46.57819" lon="6.27943">
        <ele>1519</ele>
        <time>2023-01-05T12:47:04Z</time>
      </trkpt>
      <trkpt lat="46.57778" lon="6.27906">
        <ele>1519</ele>
        <time>2023-01-05T12:47:42Z</time>
      </trkpt>
      <trkpt lat="46.57752" lon="6.27899">
        <ele>1521</ele>
        <time>2023-01-05T12:48:03Z</time>
      </trkpt>
      <trkpt lat="46.57717" lon="6.27875">
        <ele>1530</ele>
        <time>2023-01-05T12:48:34Z</time>
      </trkpt>
      <trkpt lat="46.57666" lon="6.27822">
        <ele>1539</ele>
        <time>2023-01-05T12:49:25Z</time>
      </trkpt>
      <trkpt lat="46.57625" lon="6.27783">
        <ele>1542</ele>
        <time>2023-01-05T12:50:04Z</time>
      </trkpt>
      <trkpt lat="46.57581" lon="6.27745">
        <ele>1545</ele>
        <time>2023-01-05T12:50:45Z</time>
      </trkpt>
      <trkpt lat="46.57538" lon="6.27706">
        <ele>1544</ele>
        <time>2023-01-05T12:51:25Z</time>
      </trkpt>
      <trkpt lat="46.57511" lon="6.27699">
        <ele>1547</ele>
        <time>2023-01-05T12:51:47Z</time>
      </trkpt>
      <trkpt lat="46.57464" lon="6.27705">
        <ele>1551</ele>
        <time>2023-01-05T12:52:25Z</time>
      </trkpt>
      <trkpt lat="46.57451" lon="6.27697">
        <ele>1551</ele>
        <time>2023-01-05T12:52:36Z</time>
      </trkpt>
      <trkpt lat="46.57423" lon="6.27667">
        <ele>1550</ele>
        <time>2023-01-05T12:53:04Z</time>
      </trkpt>
      <trkpt lat="46.5739" lon="6.27632">
        <ele>1551</ele>
        <time>2023-01-05T12:53:37Z</time>
      </trkpt>
      <trkpt lat="46.57371" lon="6.27616">
        <ele>1554</ele>
        <time>2023-01-05T12:53:55Z</time>
      </trkpt>
      <trkpt lat="46.57334" lon="6.27584">
        <ele>1561</ele>
        <time>2023-01-05T12:54:29Z</time>
      </trkpt>
      <trkpt lat="46.57321" lon="6.2758">
        <ele>1562</ele>
        <time>2023-01-05T12:54:40Z</time>
      </trkpt>
      <trkpt lat="46.57291" lon="6.27599">
        <ele>1564</ele>
        <time>2023-01-05T12:55:06Z</time>
      </trkpt>
      <trkpt lat="46.57257" lon="6.27603">
        <ele>1566</ele>
        <time>2023-01-05T12:55:33Z</time>
      </trkpt>
      <trkpt lat="46.57236" lon="6.27614">
        <ele>1564</ele>
        <time>2023-01-05T12:55:51Z</time>
      </trkpt>
      <trkpt lat="46.57222" lon="6.27614">
        <ele>1562</ele>
        <time>2023-01-05T12:56:02Z</time>
      </trkpt>
      <trkpt lat="46.57161" lon="6.27557">
        <ele>1555</ele>
        <time>2023-01-05T12:57:00Z</time>
      </trkpt>
      <trkpt lat="46.57105" lon="6.2748">
        <ele>1538</ele>
        <time>2023-01-05T12:58:02Z</time>
      </trkpt>
      <trkpt lat="46.57072" lon="6.27424">
        <ele>1526</ele>
        <time>2023-01-05T12:58:43Z</time>
      </trkpt>
      <trkpt lat="46.57034" lon="6.27375">
        <ele>1515</ele>
        <time>2023-01-05T12:59:23Z</time>
      </trkpt>
      <trkpt lat="46.56996" lon="6.27338">
        <ele>1508</ele>
        <time>2023-01-05T13:00:00Z</time>
      </trkpt>
      <trkpt lat="46.56957" lon="6.27311">
        <ele>1511</ele>
        <time>2023-01-05T13:00:34Z</time>
      </trkpt>
      <trkpt lat="46.56901" lon="6.27293">
        <ele>1517</ele>
        <time>2023-01-05T13:01:20Z</time>
      </trkpt>
      <trkpt lat="46.56846" lon="6.27275">
        <ele>1523</ele>
        <time>2023-01-05T13:02:06Z</time>
      </trkpt>
      <trkpt lat="46.568" lon="6.27249">
        <ele>1524</ele>
        <time>2023-01-05T13:02:45Z</time>
      </trkpt>
      <trkpt lat="46.56752" lon="6.27222">
        <ele>1523</ele>
        <time>2023-01-05T13:03:26Z</time>
      </trkpt>
      <trkpt lat="46.56723" lon="6.27199">
        <ele>1520</ele>
        <time>2023-01-05T13:03:53Z</time>
      </trkpt>
      <trkpt lat="46.56688" lon="6.27171">
        <ele>1516</ele>
        <time>2023-01-05T13:04:25Z</time>
      </trkpt>
      <trkpt lat="46.56662" lon="6.27143">
        <ele>1511</ele>
        <time>2023-01-05T13:04:51Z</time>
      </trkpt>
      <trkpt lat="46.56626" lon="6.27107">
        <ele>1504</ele>
        <time>2023-01-05T13:05:26Z</time>
      </trkpt>
      <trkpt lat="46.56591" lon="6.2707">
        <ele>1498</ele>
        <time>2023-01-05T13:06:00Z</time>
      </trkpt>
      <trkpt lat="46.56559" lon="6.27042">
        <ele>1493</ele>
        <time>2023-01-05T13:06:30Z</time>
      </trkpt>
      <trkpt lat="46.56517" lon="6.27002">
        <ele>1487</ele>
        <time>2023-01-05T13:07:10Z</time>
      </trkpt>
      <trkpt lat="46.56474" lon="6.26963">
        <ele>1483</ele>
        <time>2023-01-05T13:07:51Z</time>
      </trkpt>
      <trkpt lat="46.56463" lon="6.2693">
        <ele>1482</ele>
        <time>2023-01-05T13:08:11Z</time>
      </trkpt>
      <trkpt lat="46.56428" lon="6.26877">
        <ele>1480</ele>
        <time>2023-01-05T13:08:52Z</time>
      </trkpt>
      <trkpt lat="46.56427" lon="6.26853">
        <ele>1478</ele>
        <time>2023-01-05T13:09:05Z</time>
      </trkpt>
      <trkpt lat="46.56438" lon="6.26807">
        <ele>1475</ele>
        <time>2023-01-05T13:09:32Z</time>
      </trkpt>
      <trkpt lat="46.56418" lon="6.26721">
        <ele>1472</ele>
        <time>2023-01-05T13:10:22Z</time>
      </trkpt>
      <trkpt lat="46.56394" lon="6.26698">
        <ele>1472</ele>
        <time>2023-01-05T13:10:45Z</time>
      </trkpt>
      <trkpt lat="46.56354" lon="6.26658">
        <ele>1473</ele>
        <time>2023-01-05T13:11:23Z</time>
      </trkpt>
      <trkpt lat="46.56327" lon="6.26617">
        <ele>1473</ele>
        <time>2023-01-05T13:11:55Z</time>
      </trkpt>
      <trkpt lat="46.56292" lon="6.26565">
        <ele>1473</ele>
        <time>2023-01-05T13:12:35Z</time>
      </trkpt>
      <trkpt lat="46.56243" lon="6.26532">
        <ele>1478</ele>
        <time>2023-01-05T13:13:18Z</time>
      </trkpt>
      <trkpt lat="46.56231" lon="6.26485">
        <ele>1476</ele>
        <time>2023-01-05T13:13:46Z</time>
      </trkpt>
      <trkpt lat="46.56216" lon="6.26427">
        <ele>1473</ele>
        <time>2023-01-05T13:14:20Z</time>
      </trkpt>
      <trkpt lat="46.56172" lon="6.26367">
        <ele>1477</ele>
        <time>2023-01-05T13:15:08Z</time>
      </trkpt>
      <trkpt lat="46.56146" lon="6.26337">
        <ele>1477</ele>
        <time>2023-01-05T13:15:35Z</time>
      </trkpt>
      <trkpt lat="46.56112" lon="6.26299">
        <ele>1479</ele>
        <time>2023-01-05T13:16:09Z</time>
      </trkpt>
      <trkpt lat="46.56109" lon="6.26256">
        <ele>1476</ele>
        <time>2023-01-05T13:16:33Z</time>
      </trkpt>
      <trkpt lat="46.56079" lon="6.26207">
        <ele>1477</ele>
        <time>2023-01-05T13:17:09Z</time>
      </trkpt>
      <trkpt lat="46.56043" lon="6.2615">
        <ele>1474</ele>
        <time>2023-01-05T13:17:51Z</time>
      </trkpt>
      <trkpt lat="46.56007" lon="6.26092">
        <ele>1471</ele>
        <time>2023-01-05T13:18:34Z</time>
      </trkpt>
      <trkpt lat="46.5597" lon="6.26033">
        <ele>1467</ele>
        <time>2023-01-05T13:19:18Z</time>
      </trkpt>
      <trkpt lat="46.55936" lon="6.25978">
        <ele>1463</ele>
        <time>2023-01-05T13:19:59Z</time>
      </trkpt>
      <trkpt lat="46.55931" lon="6.25949">
        <ele>1463</ele>
        <time>2023-01-05T13:20:16Z</time>
      </trkpt>
      <trkpt lat="46.55945" lon="6.2591">
        <ele>1463</ele>
        <time>2023-01-05T13:20:40Z</time>
      </trkpt>
      <trkpt lat="46.55939" lon="6.25887">
        <ele>1462</ele>
        <time>2023-01-05T13:20:53Z</time>
      </trkpt>
      <trkpt lat="46.55887" lon="6.25834">
        <ele>1468</ele>
        <time>2023-01-05T13:21:44Z</time>
      </trkpt>
      <trkpt lat="46.55849" lon="6.25805">
        <ele>1474</ele>
        <time>2023-01-05T13:22:19Z</time>
      </trkpt>
      <trkpt lat="46.55818" lon="6.25769">
        <ele>1478</ele>
        <time>2023-01-05T13:22:50Z</time>
      </trkpt>
      <trkpt lat="46.55788" lon="6.25725">
        <ele>1478</ele>
        <time>2023-01-05T13:23:24Z</time>
      </trkpt>
      <trkpt lat="46.55748" lon="6.25687">
        <ele>1479</ele>
        <time>2023-01-05T13:24:03Z</time>
      </trkpt>
      <trkpt lat="46.55724" lon="6.25652">
        <ele>1473</ele>
        <time>2023-01-05T13:24:30Z</time>
      </trkpt>
      <trkpt lat="46.55697" lon="6.256">
        <ele>1467</ele>
        <time>2023-01-05T13:25:06Z</time>
      </trkpt>
      <trkpt lat="46.55662" lon="6.25554">
        <ele>1464</ele>
        <time>2023-01-05T13:25:44Z</time>
      </trkpt>
      <trkpt lat="46.55618" lon="6.25515">
        <ele>1463</ele>
        <time>2023-01-05T13:26:25Z</time>
      </trkpt>
      <trkpt lat="46.55594" lon="6.25483">
        <ele>1464</ele>
        <time>2023-01-05T13:26:51Z</time>
      </trkpt>
      <trkpt lat="46.55554" lon="6.25431">
        <ele>1462</ele>
        <time>2023-01-05T13:27:34Z</time>
      </trkpt>
      <trkpt lat="46.55514" lon="6.25378">
        <ele>1456</ele>
        <time>2023-01-05T13:28:17Z</time>
      </trkpt>
      <trkpt lat="46.55467" lon="6.25307">
        <ele>1450</ele>
        <time>2023-01-05T13:29:11Z</time>
      </trkpt>
      <trkpt lat="46.55427" lon="6.25267">
        <ele>1450</ele>
        <time>2023-01-05T13:29:50Z</time>
      </trkpt>
      <trkpt lat="46.55388" lon="6.25211">
        <ele>1452</ele>
        <time>2023-01-05T13:30:34Z</time>
      </trkpt>
      <trkpt lat="46.55345" lon="6.25172">
        <ele>1454</ele>
        <time>2023-01-05T13:31:15Z</time>
      </trkpt>
      <trkpt lat="46.55334" lon="6.25151">
        <ele>1455</ele>
        <time>2023-01-05T13:31:29Z</time>
      </trkpt>
      <trkpt lat="46.5531" lon="6.25109">
        <ele>1453</ele>
        <time>2023-01-05T13:31:59Z</time>
      </trkpt>
      <trkpt lat="46.55288" lon="6.25075">
        <ele>1451</ele>
        <time>2023-01-05T13:32:25Z</time>
      </trkpt>
      <trkpt lat="46.55263" lon="6.2504">
        <ele>1449</ele>
        <time>2023-01-05T13:32:53Z</time>
      </trkpt>
      <trkpt lat="46.55251" lon="6.25059">
        <ele>1448</ele>
        <time>2023-01-05T13:33:07Z</time>
      </trkpt>
      <trkpt lat="46.55246" lon="6.25073">
        <ele>1448</ele>
        <time>2023-01-05T13:33:16Z</time>
      </trkpt>
      <trkpt lat="46.55244" lon="6.25087">
        <ele>1448</ele>
        <time>2023-01-05T13:33:24Z</time>
      </trkpt>
      <trkpt lat="46.55239" lon="6.25127">
        <ele>1446</ele>
        <time>2023-01-05T13:33:46Z</time>
      </trkpt>
      <trkpt lat="46.55238" lon="6.25152">
        <ele>1444</ele>
        <time>2023-01-05T13:34:00Z</time>
        <extensions>
          <visugpx:TrkExtension xmlns:visugpx="https://www.visugpx.com/editgpx/">
            <visugpx:node>1</visugpx:node>
            </visugpx:TrkExtension>
        </extensions>
      </trkpt>
    </trkseg>
  </trk>
</gpx>